Presure
192 187 187 188 188 193 191 196 194 173 187 197 196 192 201 212 206 274 261 236 253 204 228 261 202 210 173 186 192 198 184 196 193 185 177 201 169 188 173 191 182 179 182 186
198 182 180 187 195 185 186 197 189 179 184 187 195 196 196 211 211 210 251 224 269 242 217 239 254 191 216 187 195 205 189 200 187 199 217 205 191 181 180 182 176 158 175 183
191 178 185 183 195 200 188 200 177 180 175 176 182 183 193 197 201 208 203 267 255 270 243 224 239 247 237 229 175 193 188 181 192 178 171 187 181 188 174 180 178 173 168 181
188 185 185 179 195 195 185 181 188 186 182 183 179 179 187 196 193 200 206 220 256 260 261 247 225 234 239 245 257 243 208 196 187 185 201 186 119 138 243 207 183 187 181 192
186 187 176 182 189 194 194 180 190 183 171 178 174 177 184 186 192 195 205 203 226 251 263 258 244 250 230 231 235 237 244 246 238 226 204 120 132 212 196 130 221 210 203 187
194 176 191 175 168 190 203 185 175 179 168 165 167 171 189 178 182 188 198 199 204 212 254 241 255 259 232 231 226 226 227 238 236 210 237 211 143 194 215 217 209 229 224 216
197 189 177 190 193 193 186 164 153 175 179 160 163 162 166 181 183 175 203 191 196 199 211 264 255 262 241 230 228 227 227 212 220 218 220 165 220 203 203 212 207 195 194 201
187 193 186 195 158 189 183 199 191 180 162 161 174 179 171 179 185 180 181 200 188 197 219 211 254 213 261 248 226 227 216 221 213 221 224 222 219 222 218 194 194 199 199 195
191 195 191 189 179 197 186 192 184 158 181 156 179 180 173 175 187 178 177 186 193 178 197 210 236 218 256 245 255 239 222 223 218 208 206 200 207 205 217 219 218 216 209 210
203 190 187 192 200 203 194 189 192 197 197 167 175 154 181 182 169 187 173 191 200 189 178 195 202 221 203 249 257 240 254 236 218 213 218 220 217 210 212 212 212 213 207 201
194 196 195 197 191 185 191 190 181 195 196 176 192 157 187 173 187 185 183 171 187 195 179 185 195 198 207 223 208 251 246 250 264 242 217 205 195 209 200 205 202 203 201 195
201 197 194 186 194 196 178 190 184 193 187 174 193 163 199 183 198 168 189 180 174 193 198 177 170 189 195 206 218 194 224 248 235 259 254 245 228 221 216 213 213 208 210 184
208 200 196 199 202 201 196 179 194 183 186 161 180 184 192 183 192 171 162 180 175 177 195 192 182 157 179 189 183 198 233 201 194 246 238 236 244 250 250 244 237 234 232 225
200 199 195 192 191 203 175 193 183 195 182 160 177 169 169 182 187 179 176 190 177 188 185 170 190 191 192 178 187 192 189 208 233 222 198 210 215 229 236 230 226 229 226 216
213 215 209 204 201 195 202 199 185 195 178 206 167 162 160 206 177 167 195 190 189 173 175 183 195 192 180 169 178 179 180 184 188 194 237 220 223 239 256 246 237 201 214 209
204 204 203 201 197 195 196 203 195 193 208 213 186 201 189 189 176 186 192 197 186 178 179 190 186 188 187 195 183 191 183 182 180 137 177 191 220 235 234 223 221 215 214 209
209 202 209 197 196 198 199 197 203 206 200 204 220 208 191 191 191 161 167 194 181 183 179 183 196 185 170 179 195 208 182 210 125 183 186 193 185 182 191 182 194 188 181 211
223 225 208 204 205 203 208 142 216 207 211 220 212 206 203 192 195 194 193 188 180 178 182 196 185 187 192 189 184 196 201 186 194 201 195 187 189 191 194 184 178 180 177 175
229 219 238 243 238 109 228 236 233 139 134 215 210 212 208 197 194 194 198 192 186 188 185 189 189 192 188 180 183 189 190 183 208 207 194 189 182 185 188 191 195 170 175 191
220 223 225 223 226 207 222 221 226 222 207 208 214 213 216 199 203 193 195 202 199 197 192 195 189 181 181 190 191 185 185 193 182 196 204 220 214 196 173 179 207 190 173 194
197 226 229 225 217 173 212 136 218 219 164 178 220 224 215 215 199 202 201 201 206 206 198 189 180 182 192 186 199 182 197 193 200 196 192 205 192 192 221 203 204 190 170 212
149 238 238 234 233 222 100 210 190 218 216 195 144 157 223 204 207 202 195 201 207 200 199 198 186 190 189 189 195 197 202 201 186 192 207 192 212 199 197 218 196 197 176 196
264 268 269 266 253 232 233 223 226 226 217 218 218 210 210 217 203 214 216 209 201 202 213 215 204 199 195 190 205 203 191 206 198 194 197 197 193 209 205 212 201 207 198 192
268 272 274 276 219 274 272 275 252 243 237 234 215 228 220 116 214 218 195 124 211 212 213 212 213 214 213 211 205 193 202 203 191 195 195 205 189 203 212 210 204 202 214 210
312 317 319 291 263 263 276 278 272 268 267 261 261 223 216 223 230 211 211 213 210 206 205 203 200 194 201 200 197 202 209 191 199 194 195 203 194 208 209 206 205 206 207 204
294 295 296 301 312 315 314 318 297 255 258 266 265 260 256 239 254 186 232 220 215 218 213 211 211 211 209 211 205 201 199 221 194 217 214 218 212 212 211 211 211 208 215 220
Wind_Speed
43 38 33 29 32 22 17 16 14 33 24 18 21 15 20 18 12 19 15 18 21 24 25 21 66 70 33 51 69 72 55 75 70 63 60 78 53 73 55 75 72 69 74 80
38 48 25 33 33 27 24 18 17 22 22 18 19 23 19 26 22 22 20 17 22 21 26 19 23 54 68 58 66 80 67 76 66 65 66 80 77 70 63 71 64 37 66 75
44 53 28 38 33 28 22 21 22 19 25 25 19 17 21 18 20 22 17 17 16 18 19 24 21 27 47 49 38 70 72 62 73 58 47 58 63 65 69 75 70 64 61 70
42 48 38 38 33 29 28 20 24 23 22 21 19 17 20 22 14 18 20 23 17 14 18 21 25 23 27 33 25 49 83 75 64 61 76 68 28 37 63 80 73 73 70 74
49 50 32 35 40 31 35 26 26 24 24 22 24 19 19 19 22 17 20 20 27 17 13 16 21 24 26 28 27 29 32 43 62 73 71 27 29 56 34 33 72 73 69 70
48 51 40 47 38 33 35 32 28 24 29 26 28 22 19 16 18 16 21 18 21 22 16 15 16 20 25 26 29 30 33 29 34 55 34 58 37 62 56 51 55 59 58 63
55 57 46 46 43 36 36 43 33 30 32 29 28 24 23 21 19 16 24 16 16 19 21 14 12 17 20 27 30 29 29 38 34 39 44 43 47 55 54 49 52 60 63 59
56 55 52 49 33 41 38 35 37 37 33 33 32 30 31 23 20 20 22 21 16 20 26 19 17 12 13 21 29 31 32 32 37 31 32 34 39 42 47 56 54 56 57 59
61 56 57 52 56 46 42 33 39 39 38 34 31 34 31 33 19 23 19 22 21 15 21 25 23 18 15 14 24 34 31 31 32 40 41 46 42 45 39 39 43 49 55 53
60 61 60 54 50 42 36 40 38 38 40 43 35 33 36 30 29 25 22 23 18 21 13 16 22 22 19 14 15 21 33 40 37 36 36 38 42 44 44 47 47 47 50 51
60 62 64 57 44 46 40 38 45 41 38 40 38 41 39 32 35 27 29 22 24 17 19 15 20 19 21 19 19 15 19 23 29 43 41 44 46 42 46 44 47 47 50 56
68 65 63 59 55 51 55 48 47 36 39 43 38 47 41 37 39 38 32 32 25 22 23 23 27 19 20 22 23 24 20 20 26 25 33 44 48 50 53 53 54 53 52 50
66 62 63 62 56 51 48 55 49 49 47 45 46 45 45 41 37 41 35 36 35 31 25 29 27 34 22 21 23 24 19 25 27 25 29 32 34 37 39 39 39 43 43 44
68 63 64 62 59 59 47 55 56 51 51 52 47 51 40 43 41 38 41 37 40 39 32 31 33 32 29 26 25 27 25 24 21 24 32 30 33 35 35 37 39 40 42 44
69 69 71 71 70 61 58 58 60 55 57 50 54 51 52 49 45 46 49 41 39 45 38 38 34 34 37 31 33 31 30 29 30 31 22 30 29 24 24 30 34 38 40 43
70 70 69 69 67 63 58 63 60 58 60 53 56 49 55 55 48 49 48 47 41 48 47 42 41 35 39 35 39 40 36 36 37 35 38 37 28 26 28 33 35 35 38 41
76 72 78 72 71 75 72 65 70 70 61 59 53 52 57 57 56 49 51 45 47 48 52 47 43 43 44 43 40 41 44 41 41 46 43 45 45 45 45 45 45 44 46 44
74 79 78 77 77 76 82 41 78 68 69 66 61 57 55 60 63 57 52 51 53 54 55 53 46 46 45 45 46 43 41 45 45 45 45 45 44 45 45 52 53 53 54 54
75 76 72 74 80 29 61 78 74 34 30 67 65 65 61 63 64 59 59 57 57 57 56 55 51 51 49 54 53 50 48 47 46 45 49 53 54 52 49 49 52 57 56 56
74 73 74 71 71 71 62 67 67 69 60 70 64 66 64 66 61 62 66 67 65 61 57 58 57 57 57 55 55 59 55 48 52 51 51 51 52 51 63 60 48 59 61 60
63 81 82 77 77 44 69 38 72 71 45 48 70 72 69 67 65 66 72 69 69 69 65 60 59 59 60 62 60 59 58 55 56 57 56 55 56 56 58 61 55 62 65 60
34 92 90 86 87 76 16 77 69 80 75 70 38 43 72 67 69 68 71 73 72 68 67 65 61 63 65 65 65 68 71 65 60 59 64 60 59 60 65 64 63 63 68 68
90 93 95 96 91 81 88 88 92 92 82 82 82 74 71 78 73 76 77 78 77 78 80 75 72 72 71 65 78 76 67 76 66 65 66 65 64 71 66 68 65 68 71 74
82 85 85 86 62 89 89 92 95 95 99 97 82 92 89 26 79 78 68 31 81 82 79 75 75 76 76 78 78 70 78 75 71 68 68 75 67 73 80 76 72 74 81 79
61 60 65 70 81 82 88 86 84 87 89 93 95 91 86 90 93 78 79 84 83 79 74 69 70 67 74 73 73 80 82 71 77 73 75 79 73 83 83 83 82 80 80 80
57 58 61 61 62 63 65 63 76 83 83 86 87 88 95 92 99 61 91 84 84 88 87 83 81 80 81 82 80 80 81 81 74 83 84 85 85 86 86 88 90 88 95 93
Wind_Direction
255 257 253 263 264 260 258 277 254 278 292 324 329 326 342 338 354 337 299 272 266 234 247 273 224 213 243 243 232 227 244 219 234 254 263 236 272 252 274 250 262 270 271 270
249 250 248 262 275 251 254 264 242 270 282 300 321 329 332 347 4 358 334 319 271 255 247 245 246 234 224 242 240 221 234 232 251 244 244 238 249 262 263 261 269 275 272 269
241 248 243 256 273 257 251 262 247 253 275 287 303 314 324 341 353 355 349 325 306 276 255 232 237 238 232 237 244 239 242 250 244 254 261 254 260 259 266 265 262 266 271 270
240 246 240 252 266 254 246 229 245 245 251 283 288 299 315 334 335 348 351 352 327 298 271 264 245 233 242 229 239 240 239 244 249 255 251 255 275 269 251 251 261 262 263 264
236 243 237 252 259 250 248 228 243 248 260 267 286 296 308 321 327 334 346 354 344 326 301 278 258 246 241 236 236 241 239 240 248 250 250 257 263 253 256 273 247 250 257 262
235 240 237 237 252 245 247 239 222 240 256 267 284 289 298 303 308 313 337 345 348 338 325 317 272 249 243 243 241 243 239 241 239 245 243 246 262 255 243 249 251 248 253 256
231 235 227 242 248 242 238 245 264 250 244 267 275 275 281 294 298 287 335 316 341 340 333 323 302 255 252 249 246 245 244 240 243 241 243 254 247 251 250 250 251 251 253 258
236 236 241 238 249 239 250 249 245 234 259 261 266 264 273 282 287 294 303 321 317 336 340 329 339 292 271 252 253 250 243 242 241 246 245 247 247 248 248 251 254 256 260 262
233 232 234 228 234 242 237 245 253 256 243 264 247 266 263 276 276 279 286 303 312 285 335 336 345 323 316 282 253 248 250 247 240 240 241 245 245 249 251 252 250 250 255 258
225 232 238 236 242 248 236 238 243 250 251 252 240 274 257 269 268 272 265 298 323 301 272 321 324 332 306 318 281 266 251 249 249 247 248 247 247 250 253 253 255 258 261 264
232 232 239 241 232 231 227 232 237 244 247 253 258 263 258 251 272 271 269 261 288 296 259 276 310 310 311 320 297 294 275 259 255 248 252 251 255 253 253 256 260 262 265 265
231 231 235 237 235 236 230 233 235 242 244 244 258 256 261 255 269 269 278 272 266 285 286 255 242 295 304 313 316 281 293 280 274 253 248 252 257 259 260 264 266 269 270 278
231 232 238 241 243 239 239 234 243 234 237 249 242 255 258 256 256 254 268 268 271 273 283 279 274 252 269 291 287 300 316 285 285 274 270 267 264 265 263 265 267 269 270 274
234 235 239 242 241 245 243 240 237 245 235 247 246 256 259 264 251 249 253 267 269 272 272 265 274 277 279 259 278 286 284 295 309 288 282 276 274 277 277 276 276 278 279 279
235 234 235 240 245 241 244 245 235 245 235 255 248 257 264 268 250 255 268 260 263 266 263 266 278 274 270 273 269 266 269 277 282 283 300 285 281 282 283 282 283 277 283 282
235 237 240 244 249 251 251 254 245 241 262 255 236 249 252 252 249 250 257 266 253 260 265 270 268 274 275 286 275 278 275 275 273 273 275 282 288 298 294 283 283 282 285 285
233 237 236 240 243 249 250 249 254 257 250 246 247 238 244 250 249 259 255 255 247 254 261 263 278 271 267 271 291 305 285 304 278 285 284 289 285 284 291 285 295 291 290 291
236 236 239 241 243 243 249 241 251 251 255 248 248 243 241 246 251 247 251 249 245 252 255 269 263 270 277 279 275 291 293 279 288 290 287 287 287 289 290 293 294 295 296 299
235 239 241 240 242 222 241 243 244 249 253 247 245 246 244 243 248 255 256 253 248 252 253 263 262 271 267 266 268 276 275 276 294 296 285 287 285 285 286 290 291 290 291 287
238 239 243 243 241 238 240 241 241 240 241 248 249 248 246 244 245 250 254 255 256 258 259 266 262 261 264 272 276 272 272 276 272 285 292 292 294 282 282 284 286 286 287 290
237 242 243 240 241 232 241 236 246 243 241 244 247 244 246 247 243 247 251 253 256 258 258 254 254 259 269 264 275 265 278 276 286 283 279 290 273 275 298 287 286 281 285 291
227 244 244 241 240 238 205 245 246 248 243 242 252 253 245 246 247 246 250 254 255 256 257 257 252 259 263 265 274 275 280 282 270 276 290 275 291 281 282 293 278 281 282 286
243 244 245 246 247 244 240 241 243 245 247 248 246 248 246 242 243 248 250 253 256 258 261 262 260 261 264 264 276 277 275 284 278 280 283 284 277 291 287 291 283 289 281 281
243 244 245 245 247 247 247 245 243 245 249 249 248 248 247 256 246 245 246 266 252 255 257 258 260 263 266 269 272 271 278 280 275 278 280 288 277 287 288 289 287 286 290 291
241 244 246 246 246 247 247 245 245 245 244 246 247 248 250 249 249 248 247 247 250 255 258 259 260 260 263 265 266 270 273 271 276 278 280 281 281 284 285 286 285 286 288 287
239 239 241 242 244 245 246 248 244 243 244 245 244 245 250 252 250 253 251 252 253 253 256 258 259 261 264 267 266 266 268 271 271 275 276 275 276 277 279 280 282 283 284 287